Location: Newark
(54.9667°N, 1.6167°W)
Time: 05:03:37
(UTC+00:00)

Envisat - Visible Passes

Search period start: 22 November 2019 00:00
Search period end: 02 December 2019 00:00
Orbit: 764 x 766 km, 98.1° (Epoch: 21 November)

Date Brightness Start Highest point End Pass type
(mag) Time Alt. Az. Time Alt. Az. Time Alt. Az.
22 Nov 5.9 05:48:22 10° NE 05:51:59 19° E 05:55:34 10° SE visible
22 Nov 3.2 17:09:30 10° SE 17:14:23 49° ENE 17:19:17 10° N visible
22 Nov 4.7 18:49:04 10° SSW 18:53:37 33° W 18:58:12 10° NNW visible
23 Nov 3.9 06:49:49 10° NNE 06:54:50 54° E 06:59:48 10° S visible
23 Nov 3.8 16:33:35 10° ESE 16:37:52 28° ENE 16:42:11 10° N visible
23 Nov 3.5 18:11:35 10° S 18:16:37 61° WSW 18:21:41 10° NNW visible
23 Nov 6.2 19:55:10 10° W 19:56:44 11° W 19:58:19 10° WNW visible
24 Nov 5.2 06:13:21 10° NNE 06:17:47 29° E 06:22:11 10° SSE visible
24 Nov 2.9 17:34:44 10° SSE 17:39:48 74° ENE 17:44:54 10° NNW visible
24 Nov 5.4 19:15:32 10° SW 19:19:24 21° W 19:23:17 10° NW visible
25 Nov 6.0 05:37:28 10° NE 05:40:33 16° E 05:43:36 10° ESE visible
25 Nov 3.4 16:58:25 10° SE 17:03:10 41° ENE 17:07:56 10° N visible
25 Nov 4.4 18:37:30 10° SSW 18:42:15 39° W 18:47:02 10° NNW visible
26 Nov 4.3 06:38:36 10° NNE 06:43:29 45° E 06:48:20 10° S visible
26 Nov 3.2 18:00:14 10° S 18:05:19 73° WSW 18:10:26 10° NNW visible
26 Nov 6.0 19:42:41 10° WSW 19:45:16 14° W 19:47:52 10° NW visible
27 Nov 5.5 06:02:15 10° NE 06:06:23 24° E 06:10:31 10° SE visible
27 Nov 3.0 17:23:32 10° SSE 17:28:33 62° ENE 17:33:35 10° N visible
27 Nov 5.1 19:03:47 10° SSW 19:07:59 26° W 19:12:13 10° NW visible
28 Nov 6.1 05:26:44 10° NE 05:29:05 13° E 05:31:27 10° ESE visible
28 Nov 3.4 07:04:00 10° NNE 07:09:06 70° ESE 07:14:09 10° S visible
28 Nov 3.6 16:47:23 10° SE 16:51:58 35° ENE 16:56:34 10° N visible
28 Nov 4.0 18:26:01 10° S 18:30:54 47° W 18:35:50 10° NNW visible
29 Nov 4.7 06:27:24 10° NNE 06:32:08 37° E 06:36:50 10° SSE visible
29 Nov 3.0 17:48:55 10° SSE 17:54:01 87° WSW 17:59:09 10° NNW visible
29 Nov 5.7 19:30:36 10° SW 19:33:49 17° W 19:37:04 10° NW visible
30 Nov 5.7 05:51:12 10° NE 05:54:58 20° E 05:58:44 10° SE visible
30 Nov 3.1 17:12:23 10° SE 17:17:18 52° ENE 17:22:15 10° N visible
30 Nov 4.8 18:52:08 10° SSW 18:56:36 31° W 19:01:06 10° NNW visible
01 Dec 6.3 05:16:31 10° ENE 05:17:37 11° E 05:18:43 10° E visible
01 Dec 3.8 06:52:44 10° NNE 06:57:47 58° E 07:02:47 10° S visible
01 Dec 3.7 16:36:24 10° ESE 16:40:47 30° ENE 16:45:10 10° N visible
01 Dec 3.6 18:14:34 10° S 18:19:34 57° W 18:24:36 10° NNW visible
01 Dec 6.2 19:58:54 10° W 19:59:46 10° W 20:00:36 10° WNW visible
